Tracking 30701 objects as of 14-Jun-2025
HD Live streaming from Space Station
objects crossing your sky now

COSMOS 647

Track COSMOS 647 now!
10-day predictions
COSMOS 647 is classified as:


NORAD ID: 7271
Int'l Code: 1974-024G
Perigee: 1,429.0 km
Apogee: 1,490.3 km
Inclination: 74.0 °
Period: 114.9 minutes
Semi major axis: 7830 km
RCS: 0.7018 m2 (medium)
Launch date: April 23, 1974
Source: Commonwealth of Independent States (former USSR) (CIS)
Launch site: PLESETSK MISSILE AND SPACE COMPLEX (PKMTR)
Your satellite tracking list
Your tracking list is empty




NASA's NSSDC Master Catalog

Two Line Element Set (TLE):
1 07271U 74024G   25164.92841177 -.00000009  00000-0  45441-4 0  9993
2 07271  74.0187 305.5914 0039125   8.3202 126.8682 12.52868750338931
Source of the keplerian elements: AFSPC